Flag for Germany Weather past 2 weeks in Wismar, Mecklenburg-Western Pomerania, Germany

Now
64 °F

Fog.


Feels Like: 64 °F
Forecast: 55 / 68 °F
Wind: 2 mph from West

Location: Schwerin

Current Time: Oct 2, 2014 at 12:48:57 PM

Latest Report: Oct 2, 2014 at 12:00 PM


Visibility: 3 mi

Pressure: 30.39 "Hg

Humidity: 80%

Dew point: 58 °F

Location of WismarLocation

Historic Weather in Wismar — Graph

°F

Wismar temperature yesterday

Maximum temperature yesterday: 66 °F (at 4:00 PM)
Minimum temperature yesterday: 56 °F (at 9:00 AM)
Average temperature yesterday: 60 °F

Past Weeks' High & Low Weather Summary

 TemperatureHumidityPressure
High74 °F (Sep 20, 3:00 PM)100% (Sep 21, 6:00 AM)30.40 "Hg (Sep 21, 6:00 AM)
Low45 °F (Sep 28, 7:00 AM)46% (Sep 23, 3:00 PM)29.77 "Hg (Sep 25, 1:00 AM)
Average58 °F82%30.06 "Hg
* Reported Sep 17 12:00 Noon — Oct 2 11:00 AM, Wismar, Weather by CustomWeather, © 2014

Note: Actual official high and low records may vary slightly from our data, if they occured in-between our weather recording intervals... More about our weather records

Advertising

Wismar weather history for previous 24 hours

 ConditionsComfort  
Time TempWeatherWind HumidityBarometerVisibility
11:00 AM
Oct 2
61 °FFog.2 mph87%30.40 "Hg2 mi
10:00 AM60 °FFog.2 mph93%30.39 "Hg1 mi
9:00 AM58 °FFog.2 mph96%30.37 "Hg1 mi
8:00 AM58 °FFog.2 mph97%30.37 "Hg1 mi
7:00 AM56 °FFog.3 mph98%30.35 "Hg1 mi
6:00 AM56 °FFog.3 mph98%30.34 "Hg1 mi
5:00 AM56 °FOvercast.3 mph98%30.34 "Hg1 mi
4:00 AM57 °FDrizzle. Overcast.3 mph96%30.34 "Hg1 mi
3:00 AM57 °FFog.2 mph96%30.34 "Hg2 mi
2:00 AM57 °FFog.2 mph95%30.34 "Hg2 mi
1:00 AM57 °FFog.2 mph97%30.33 "Hg2 mi
12:00 AM57 °FFog.2 mph95%30.33 "Hg2 mi
10:00 PM
Oct 1
57 °FFog.2 mph95%30.33 "Hg2 mi
9:00 PM58 °FFog.1 mph94%30.32 "Hg2 mi
8:00 PM61 °FFog.1 mph84%30.31 "Hg4 mi
7:00 PM63 °FOvercast.2 mph81%30.30 "Hg5 mi
6:00 PM64 °FPartly sunny.2 mph72%30.29 "Hg7 mi
4:00 PM66 °FScattered clouds.1 mph67%30.29 "Hg6 mi
3:00 PM64 °FPartly sunny.3 mph72%30.30 "Hg6 mi
2:00 PM64 °FScattered clouds.2 mph71%30.31 "Hg4 mi
1:00 PM61 °FFog.3 mph83%30.31 "Hg4 mi
12:00 PM59 °FFog.2 mph90%30.32 "Hg2 mi
Weather by CustomWeather, © 2014

See weather overviewHow to use our weather pages